| time (UTC) | temp C | wind direction | speed KPH | gust KPH | rain 1hr cm | rain 24hr cm | rain mn cm | humidity % | barometer mb |
| 20260905001758 | 13 | 122 | 4.8 | 4.8 | 0.00 | 0.74 | 0.74 | 90 | 1014.9 |
| 20260905001257 | 13 | 140 | 0.0 | 1.6 | 0.00 | 0.74 | 0.74 | 91 | 1014.9 |
| 20260905000753 | 13 | 112 | 0.0 | 1.6 | 0.00 | 0.74 | 0.74 | 91 | 1015.0 |
| 20260905000248 | 13 | 123 | 0.0 | 0.0 | 0.00 | 0.74 | 0.74 | 91 | 1014.9 |
| 20260904235743 | 13 | 123 | 1.6 | 1.6 | 0.00 | 0.74 | 0.74 | 90 | 1014.9 |
| 20260904235238 | 13 | 119 | 0.0 | 0.0 | 0.00 | 0.74 | 0.74 | 91 | 1014.8 |
| 20260904234733 | 13 | 120 | 3.2 | 4.8 | 0.00 | 0.74 | 0.74 | 91 | 1015.1 |
| 20260904234228 | 13 | 101 | 1.6 | 4.8 | 0.00 | 0.74 | 0.74 | 92 | 1014.9 |
| 20260904233724 | 12 | 87 | 1.6 | 3.2 | 0.00 | 0.74 | 0.74 | 93 | 1015.2 |
| 20260904233220 | 12 | 118 | 1.6 | 3.2 | 0.00 | 0.74 | 0.74 | 92 | 1014.8 |
| 20260904232716 | 12 | 130 | 1.6 | 3.2 | 0.00 | 0.74 | 0.74 | 92 | 1014.8 |
| 20260904232212 | 12 | 103 | 0.0 | 1.6 | 0.00 | 0.74 | 0.74 | 92 | 1014.8 |
| 20260904231707 | 12 | 112 | 3.2 | 3.2 | 0.00 | 0.74 | 0.74 | 92 | 1015.0 |
| 20260904231203 | 12 | 140 | 4.8 | 4.8 | 0.18 | 0.74 | 0.74 | 94 | 1015.3 |
| 20260904230702 | 12 | 146 | 1.6 | 1.6 | 0.18 | 0.74 | 0.74 | 95 | 1015.3 |
| 20260904230157 | 12 | 133 | 0.0 | 3.2 | 0.00 | 0.71 | 0.71 | 95 | 1015.1 |
| 20260904225656 | 12 | 105 | 3.2 | 3.2 | 0.00 | 0.71 | 0.71 | 94 | 1015.0 |
| 20260904225150 | 12 | 114 | 1.6 | 3.2 | 0.00 | 0.71 | 0.71 | 94 | 1014.8 |
| 20260904224644 | 12 | 121 | 1.6 | 3.2 | 0.13 | 0.71 | 0.71 | 94 | 1014.8 |
| 20260904224144 | 12 | 139 | 3.2 | 3.2 | 0.30 | 0.71 | 0.71 | 93 | 1014.9 |
| 20260904223644 | 12 | 123 | 1.6 | 1.6 | 0.00 | 0.66 | 0.66 | 94 | 1014.8 |
| 20260904223140 | 12 | 123 | 3.2 | 4.8 | 0.13 | 0.66 | 0.66 | 94 | 1015.0 |
| 20260904222636 | 12 | 123 | 0.0 | 0.0 | 0.30 | 0.66 | 0.66 | 94 | 1014.9 |
| 20260904222131 | 12 | 111 | 1.6 | 3.2 | 0.48 | 0.64 | 0.64 | 93 | 1015.0 |
| 20260904221630 | 12 | 131 | 3.2 | 9.7 | 0.48 | 0.61 | 0.61 | 92 | 1014.9 |
| 20260904221125 | 12 | 92 | 6.4 | 9.7 | 0.30 | 0.56 | 0.56 | 92 | 1015.1 |
| 20260904220620 | 12 | 108 | 1.6 | 9.7 | 0.30 | 0.53 | 0.53 | 92 | 1015.1 |
| 20260904220115 | 13 | 108 | 3.2 | 4.8 | 0.30 | 0.51 | 0.51 | 92 | 1015.0 |
| 20260904215615 | 13 | 114 | 0.0 | 1.6 | 0.61 | 0.48 | 0.48 | 91 | 1015.0 |
| 20260904215112 | 13 | 160 | 0.0 | 4.8 | 0.43 | 0.43 | 0.43 | 90 | 1014.9 |
| 20260904214607 | 13 | 115 | 0.0 | 4.8 | 0.30 | 0.38 | 0.38 | 90 | 1015.1 |
| 20260904214102 | 13 | 137 | 1.6 | 1.6 | 0.00 | 0.33 | 0.33 | 89 | 1015.0 |
| 20260904213600 | 13 | 112 | 1.6 | 3.2 | 0.00 | 0.33 | 0.33 | 87 | 1014.8 |
| 20260904213057 | 14 | 125 | 0.0 | 1.6 | 0.00 | 0.33 | 0.33 | 87 | 1014.8 |
| 20260904212556 | 14 | 136 | 0.0 | 0.0 | 0.00 | 0.33 | 0.33 | 86 | 1014.3 |
| 20260904212052 | 15 | 240 | 1.6 | 4.8 | 0.00 | 0.33 | 0.33 | 88 | 1014.4 |
| 20260904211551 | 15 | 145 | 0.0 | 1.6 | 0.00 | 0.33 | 0.33 | 87 | 1014.2 |
| 20260904211047 | 15 | 117 | 0.0 | 0.0 | 0.00 | 0.33 | 0.33 | 87 | 1013.9 |
| 20260904210546 | 14 | 136 | 0.0 | 0.0 | 0.00 | 0.33 | 0.33 | 89 | 1013.9 |
| 20260904210042 | 13 | 168 | 1.6 | 1.6 | 0.00 | 0.33 | 0.33 | 85 | 1013.8 |
| 20260904205542 | 14 | 158 | 0.0 | 1.6 | 0.13 | 0.33 | 0.33 | 86 | 1013.8 |
| 20260904205039 | 14 | 93 | 0.0 | 1.6 | 0.43 | 0.33 | 0.33 | 82 | 1013.8 |
| 20260904204535 | 15 | 141 | 1.6 | 1.6 | 0.30 | 0.28 | 0.28 | 80 | 1013.8 |
| 20260904204031 | 16 | 167 | 1.6 | 1.6 | 0.36 | 0.25 | 0.25 | 79 | 1013.9 |
| 20260904203526 | 16 | 166 | 1.6 | 1.6 | 0.00 | 0.20 | 0.20 | 73 | 1013.7 |
| 20260904203023 | 17 | 171 | 1.6 | 3.2 | 0.00 | 0.20 | 0.20 | 68 | 1013.4 |
| 20260904202519 | 17 | 138 | 0.0 | 0.0 | 0.00 | 0.20 | 0.20 | 66 | 1013.7 |
| 20260904202014 | 17 | 65 | 0.0 | 4.8 | 0.00 | 0.20 | 0.20 | 65 | 1013.4 |
| 20260904201509 | 17 | 104 | 3.2 | 3.2 | 0.00 | 0.20 | 0.20 | 63 | 1013.5 |
| 20260904201005 | 17 | 128 | 0.0 | 0.0 | 0.00 | 0.20 | 0.20 | 66 | 1013.4 |
| 20260904200503 | 17 | 121 | 0.0 | 1.6 | 0.00 | 0.20 | 0.20 | 62 | 1013.4 |
| 20260904195958 | 17 | 104 | 1.6 | 1.6 | 0.00 | 0.20 | 0.20 | 64 | 1013.3 |
| 20260904195456 | 17 | 200 | 1.6 | 4.8 | 0.00 | 0.20 | 0.20 | 66 | 1013.4 |
| 20260904194955 | 17 | 98 | 1.6 | 4.8 | 0.00 | 0.20 | 0.20 | 64 | 1013.4 |
| 20260904194451 | 18 | 21 | 9.7 | 12.9 | 0.00 | 0.20 | 0.20 | 63 | 1013.6 |
| 20260904193946 | 18 | 122 | 3.2 | 4.8 | 0.00 | 0.20 | 0.20 | 65 | 1013.6 |
| 20260904193441 | 17 | 117 | 3.2 | 4.8 | 0.00 | 0.20 | 0.20 | 60 | 1013.4 |
| 20260904192936 | 17 | 197 | 3.2 | 11.3 | 0.00 | 0.20 | 0.20 | 65 | 1013.5 |
| 20260904192431 | 17 | 328 | 6.4 | 11.3 | 0.00 | 0.20 | 0.20 | 69 | 1013.6 |
| 20260904191928 | 17 | 65 | 3.2 | 6.4 | 0.00 | 0.20 | 0.20 | 67 | 1013.8 |
| 20260904191424 | 17 | 70 | 4.8 | 6.4 | 0.00 | 0.20 | 0.20 | 65 | 1013.7 |
| 20260904190921 | 16 | 112 | 1.6 | 4.8 | 0.00 | 0.20 | 0.20 | 73 | 1013.7 |
| 20260904190420 | 16 | 68 | 6.4 | 9.7 | 0.00 | 0.20 | 0.20 | 68 | 1013.8 |
| 20260904185917 | 16 | 116 | 4.8 | 9.7 | 0.00 | 0.20 | 0.20 | 69 | 1013.9 |
| 20260904185413 | 16 | 135 | 0.0 | 1.6 | 0.00 | 0.20 | 0.20 | 73 | 1013.6 |
| 20260904184913 | 16 | 123 | 0.0 | 3.2 | 0.00 | 0.20 | 0.20 | 69 | 1014.0 |
| 20260904184407 | 16 | 146 | 1.6 | 1.6 | 0.00 | 0.20 | 0.20 | 73 | 1014.0 |
| 20260904183902 | 16 | 129 | 3.2 | 3.2 | 0.00 | 0.20 | 0.20 | 69 | 1013.9 |
| 20260904183357 | 16 | 95 | 3.2 | 6.4 | 0.00 | 0.20 | 0.20 | 67 | 1013.7 |
| 20260904182853 | 16 | 126 | 3.2 | 4.8 | 0.00 | 0.20 | 0.20 | 69 | 1013.8 |
| 20260904182348 | 16 | 145 | 0.0 | 4.8 | 0.00 | 0.20 | 0.20 | 70 | 1013.6 |
| 20260904181843 | 15 | 128 | 1.6 | 3.2 | 0.00 | 0.20 | 0.20 | 72 | 1013.7 |
| 20260904181344 | 16 | 42 | 4.8 | 4.8 | 0.00 | 0.20 | 0.20 | 71 | 1013.8 |
| 20260904180839 | 17 | 95 | 1.6 | 3.2 | 0.00 | 0.20 | 0.20 | 70 | 1013.7 |
| 20260904180335 | 16 | 113 | 0.0 | 3.2 | 0.00 | 0.20 | 0.20 | 75 | 1013.6 |
| 20260904175833 | 15 | 127 | 1.6 | 6.4 | 0.00 | 0.20 | 0.20 | 77 | 1013.6 |
| 20260904175334 | 15 | 127 | 1.6 | 6.4 | 0.00 | 0.20 | 0.20 | 76 | 1013.6 |
| 20260904174832 | 15 | 113 | 3.2 | 6.4 | 0.00 | 0.20 | 0.20 | 75 | 1013.6 |
| 20260904174329 | 15 | 106 | 6.4 | 6.4 | 0.00 | 0.20 | 0.20 | 74 | 1013.5 |
| 20260904173824 | 15 | 95 | 4.8 | 9.7 | 0.00 | 0.20 | 0.20 | 77 | 1013.3 |
| 20260904173320 | 13 | 138 | 1.6 | 6.4 | 0.00 | 0.20 | 0.20 | 82 | 1013.5 |
| 20260904172816 | 13 | 53 | 3.2 | 3.2 | 0.00 | 0.20 | 0.20 | 83 | 1013.3 |
| 20260904172314 | 13 | 101 | 1.6 | 11.3 | 0.00 | 0.20 | 0.20 | 83 | 1013.5 |
| 20260904171810 | 13 | 88 | 1.6 | 6.4 | 0.00 | 0.20 | 0.20 | 85 | 1013.3 |
| 20260904171305 | 13 | 101 | 6.4 | 6.4 | 0.00 | 0.20 | 0.20 | 85 | 1013.2 |
| 20260904170801 | 13 | 113 | 8.0 | 9.7 | 0.00 | 0.20 | 0.20 | 86 | 1013.2 |
| 20260904170257 | 12 | 132 | 0.0 | 6.4 | 0.00 | 0.20 | 0.20 | 89 | 1013.3 |
| 20260904165756 | 12 | 146 | 3.2 | 6.4 | 0.00 | 0.20 | 0.20 | 89 | 1013.5 |
| 20260904165256 | 12 | 130 | 4.8 | 6.4 | 0.00 | 0.20 | 0.20 | 90 | 1013.3 |
| 20260904164750 | 12 | 97 | 3.2 | 9.7 | 0.00 | 0.20 | 0.20 | 89 | 1013.4 |
| 20260904164246 | 12 | 105 | 4.8 | 12.9 | 0.00 | 0.20 | 0.20 | 89 | 1013.3 |
| 20260904163742 | 12 | 89 | 1.6 | 4.8 | 0.00 | 0.20 | 0.20 | 90 | 1013.5 |
| 20260904163237 | 12 | 77 | 3.2 | 4.8 | 0.00 | 0.20 | 0.20 | 92 | 1013.5 |
| 20260904162735 | 11 | 129 | 3.2 | 9.7 | 0.00 | 0.20 | 0.20 | 92 | 1013.3 |
| 20260904162231 | 11 | 94 | 6.4 | 11.3 | 0.00 | 0.20 | 0.20 | 93 | 1013.3 |
| 20260904161726 | 11 | 100 | 4.8 | 12.9 | 0.00 | 0.20 | 0.20 | 93 | 1013.3 |
| 20260904161226 | 11 | 138 | 4.8 | 6.4 | 0.00 | 0.20 | 0.20 | 93 | 1013.1 |
| 20260904160722 | 11 | 108 | 12.9 | 14.5 | 0.00 | 0.20 | 0.20 | 94 | 1013.3 |
| 20260904160218 | 10 | 89 | 3.2 | 11.3 | 0.00 | 0.20 | 0.20 | 95 | 1013.3 |
| 20260904155717 | 10 | 114 | 3.2 | 9.7 | 0.00 | 0.20 | 0.20 | 95 | 1013.2 |
| 20260904155217 | 10 | 122 | 4.8 | 6.4 | 0.00 | 0.20 | 0.20 | 95 | 1013.1 |
| 20260904154715 | 10 | 95 | 6.4 | 9.7 | 0.00 | 0.20 | 0.20 | 95 | 1013.2 |
| 20260904154210 | 10 | 140 | 6.4 | 9.7 | 0.00 | 0.20 | 0.20 | 95 | 1013.2 |
| 20260904153706 | 10 | 111 | 4.8 | 9.7 | 0.00 | 0.20 | 0.20 | 95 | 1013.1 |
| 20260904153201 | 10 | 109 | 0.0 | 6.4 | 0.00 | 0.20 | 0.20 | 95 | 1012.9 |
| 20260904152658 | 10 | 96 | 4.8 | 9.7 | 0.00 | 0.20 | 0.20 | 94 | 1013.2 |
| 20260904152153 | 10 | 128 | 8.0 | 11.3 | 0.13 | 0.20 | 0.20 | 94 | 1013.1 |
| 20260904151648 | 10 | 106 | 9.7 | 12.9 | 0.18 | 0.18 | 0.18 | 93 | 1013.3 |
| 20260904151146 | 10 | 99 | 8.0 | 11.3 | 0.18 | 0.18 | 0.18 | 93 | 1012.9 |
| 20260904150642 | 10 | 97 | 9.7 | 11.3 | 0.00 | 0.15 | 0.15 | 93 | 1012.9 |
| 20260904150138 | 10 | 117 | 9.7 | 12.9 | 0.00 | 0.15 | 0.15 | 93 | 1012.8 |
| 20260904145636 | 10 | 131 | 6.4 | 9.7 | 0.13 | 0.15 | 0.15 | 94 | 1012.9 |
| 20260904145131 | 10 | 131 | 6.4 | 6.4 | 0.13 | 0.15 | 0.15 | 94 | 1013.1 |
| 20260904144627 | 10 | 123 | 8.0 | 11.3 | 0.00 | 0.13 | 0.13 | 94 | 1012.8 |
| 20260904144122 | 10 | 123 | 6.4 | 9.7 | 0.00 | 0.13 | 0.13 | 94 | 1013.0 |
| 20260904143618 | 10 | 114 | 3.2 | 4.8 | 0.00 | 0.13 | 0.13 | 94 | 1012.7 |
| 20260904143115 | 10 | 130 | 3.2 | 9.7 | 0.00 | 0.13 | 0.13 | 94 | 1012.6 |
| 20260904142611 | 10 | 127 | 4.8 | 9.7 | 0.00 | 0.13 | 0.13 | 94 | 1012.6 |
| 20260904142112 | 10 | 101 | 6.4 | 9.7 | 0.00 | 0.13 | 0.13 | 94 | 1012.5 |
| 20260904141606 | 10 | 93 | 8.0 | 12.9 | 0.00 | 0.13 | 0.13 | 94 | 1012.5 |
| 20260904141102 | 10 | 119 | 1.6 | 4.8 | 0.00 | 0.13 | 0.13 | 94 | 1012.5 |
| 20260904140558 | 10 | 111 | 4.8 | 9.7 | 0.00 | 0.13 | 0.13 | 94 | 1012.2 |
| 20260904140057 | 10 | 130 | 1.6 | 6.4 | 0.00 | 0.13 | 0.13 | 94 | 1012.5 |
| 20260904135557 | 10 | 123 | 3.2 | 6.4 | 0.00 | 0.13 | 0.13 | 94 | 1012.4 |
| 20260904135053 | 10 | 110 | 6.4 | 11.3 | 0.00 | 0.13 | 0.13 | 94 | 1012.1 |
| 20260904134549 | 10 | 128 | 6.4 | 11.3 | 0.00 | 0.13 | 0.13 | 94 | 1012.2 |
| 20260904134042 | 10 | 123 | 4.8 | 11.3 | 0.00 | 0.13 | 0.13 | 94 | 1012.1 |
| 20260904133537 | 10 | 131 | 12.9 | 14.5 | 0.00 | 0.13 | 0.13 | 94 | 1012.1 |
| 20260904133033 | 10 | 104 | 6.4 | 11.3 | 0.00 | 0.13 | 0.13 | 94 | 1012.2 |
| 20260904132534 | 10 | 108 | 4.8 | 6.4 | 0.00 | 0.13 | 0.13 | 94 | 1012.0 |
| 20260904132033 | 10 | 117 | 0.0 | 3.2 | 0.00 | 0.13 | 0.13 | 94 | 1011.8 |
| 20260904131533 | 10 | 101 | 6.4 | 11.3 | 0.00 | 0.13 | 0.13 | 93 | 1012.0 |
| 20260904131029 | 10 | 114 | 4.8 | 11.3 | 0.18 | 0.13 | 0.13 | 94 | 1012.0 |
| 20260904130528 | 10 | 136 | 3.2 | 9.7 | 0.18 | 0.13 | 0.13 | 94 | 1011.8 |
| 20260904130023 | 10 | 78 | 8.0 | 11.3 | 0.00 | 0.10 | 0.10 | 94 | 1011.8 |
| 20260904125520 | 10 | 120 | 3.2 | 12.9 | 0.00 | 0.10 | 0.10 | 94 | 1011.6 |
| 20260904125014 | 10 | 110 | 11.3 | 16.1 | 0.00 | 0.10 | 0.10 | 94 | 1011.7 |
| 20260904124510 | 10 | 114 | 6.4 | 9.7 | 0.00 | 0.10 | 0.10 | 94 | 1011.7 |
| 20260904124006 | 10 | 130 | 4.8 | 12.9 | 0.00 | 0.10 | 0.10 | 94 | 1011.6 |
| 20260904123505 | 10 | 101 | 9.7 | 12.9 | 0.00 | 0.10 | 0.10 | 94 | 1011.7 |
| 20260904123001 | 10 | 130 | 9.7 | 11.3 | 0.00 | 0.10 | 0.10 | 94 | 1011.7 |
| 20260904122455 | 10 | 57 | 8.0 | 14.5 | 0.00 | 0.10 | 0.10 | 94 | 1011.6 |
| 20260904121949 | 10 | 90 | 6.4 | 11.3 | 0.00 | 0.10 | 0.10 | 95 | 1011.4 |
| 20260904121445 | 10 | 128 | 4.8 | 12.9 | 0.00 | 0.10 | 0.10 | 95 | 1011.5 |
| 20260904120942 | 10 | 107 | 3.2 | 6.4 | 0.00 | 0.10 | 0.10 | 95 | 1011.5 |
| 20260904120438 | 10 | 93 | 4.8 | 9.7 | 0.00 | 0.10 | 0.10 | 95 | 1011.8 |
| 20260904115932 | 10 | 102 | 3.2 | 3.2 | 0.00 | 0.10 | 0.10 | 95 | 1011.7 |
| 20260904115428 | 10 | 94 | 6.4 | 6.4 | 0.00 | 0.10 | 0.10 | 95 | 1011.6 |
| 20260904114928 | 10 | 124 | 3.2 | 6.4 | 0.13 | 0.10 | 0.10 | 95 | 1011.6 |
| 20260904114427 | 10 | 100 | 3.2 | 9.7 | 0.13 | 0.10 | 0.10 | 95 | 1011.7 |
| 20260904113923 | 10 | 74 | 1.6 | 3.2 | 0.00 | 0.08 | 0.08 | 94 | 1011.5 |
| 20260904113423 | 10 | 124 | 8.0 | 11.3 | 0.00 | 0.08 | 0.08 | 94 | 1011.4 |
| 20260904112922 | 10 | 134 | 1.6 | 3.2 | 0.18 | 0.08 | 0.08 | 94 | 1011.8 |
| 20260904112418 | 10 | 97 | 3.2 | 6.4 | 0.18 | 0.08 | 0.08 | 94 | 1011.6 |
| 20260904111913 | 10 | 105 | 6.4 | 9.7 | 0.00 | 0.05 | 0.05 | 94 | 1011.5 |
| 20260904111409 | 10 | 73 | 6.4 | 9.7 | 0.00 | 0.05 | 0.05 | 93 | 1011.4 |
| 20260904110905 | 10 | 123 | 8.0 | 9.7 | 0.13 | 0.05 | 0.05 | 93 | 1011.4 |
| 20260904110403 | 10 | 108 | 8.0 | 11.3 | 0.13 | 0.05 | 0.05 | 93 | 1011.6 |
| 20260904105858 | 10 | 104 | 11.3 | 11.3 | 0.18 | 0.03 | 0.03 | 92 | 1011.3 |
| 20260904105353 | 10 | 102 | 4.8 | 11.3 | 0.18 | 0.03 | 0.03 | 92 | 1011.4 |
| 20260904104848 | 10 | 102 | 4.8 | 6.4 | 0.00 | 0.00 | 0.00 | 92 | 1011.5 |
| 20260904104343 | 10 | 107 | 4.8 | 9.7 | 0.00 | 0.00 | 0.00 | 91 | 1011.3 |
| 20260904103841 | 10 | 119 | 6.4 | 11.3 | 0.00 | 0.00 | 0.00 | 91 | 1011.6 |
| 20260904103341 | 10 | 132 | 3.2 | 6.4 | 0.00 | 0.00 | 0.00 | 91 | 1011.4 |
| 20260904102837 | 10 | 101 | 4.8 | 9.7 | 0.00 | 0.00 | 0.00 | 90 | 1011.4 |
| 20260904102332 | 10 | 149 | 6.4 | 9.7 | 0.00 | 0.00 | 0.00 | 90 | 1011.3 |
| 20260904101828 | 10 | 106 | 4.8 | 9.7 | 0.00 | 0.00 | 0.00 | 90 | 1011.3 |
| 20260904101324 | 10 | 113 | 4.8 | 9.7 | 0.00 | 0.00 | 0.00 | 91 | 1011.3 |
| 20260904100819 | 10 | 151 | 6.4 | 9.7 | 0.00 | 0.00 | 0.00 | 91 | 1011.0 |
| 20260904100315 | 10 | 133 | 8.0 | 11.3 | 0.00 | 0.00 | 0.00 | 91 | 1011.4 |
| 20260904095810 | 10 | 133 | 6.4 | 9.7 | 0.00 | 0.00 | 0.00 | 91 | 1011.2 |
| 20260904095306 | 10 | 130 | 8.0 | 11.3 | 0.00 | 0.00 | 0.00 | 91 | 1011.1 |
| 20260904094759 | 10 | 121 | 6.4 | 9.7 | 0.00 | 0.00 | 0.00 | 92 | 1011.2 |
| 20260904094254 | 10 | 110 | 4.8 | 9.7 | 0.00 | 0.00 | 0.00 | 92 | 1011.2 |
| 20260904093751 | 10 | 121 | 3.2 | 6.4 | 0.00 | 0.00 | 0.00 | 92 | 1011.1 |
| 20260904093251 | 10 | 95 | 6.4 | 12.9 | 0.00 | 0.00 | 0.00 | 92 | 1011.2 |
| 20260904092746 | 10 | 125 | 3.2 | 9.7 | 0.00 | 0.00 | 0.00 | 92 | 1010.8 |
| 20260904092243 | 10 | 89 | 4.8 | 9.7 | 0.00 | 0.00 | 0.00 | 92 | 1011.0 |
| 20260904091739 | 10 | 104 | 4.8 | 6.4 | 0.00 | 0.00 | 0.00 | 91 | 1011.2 |
| 20260904091239 | 10 | 108 | 4.8 | 9.7 | 0.00 | 0.00 | 0.00 | 91 | 1010.8 |
| 20260904090735 | 10 | 122 | 6.4 | 9.7 | 0.00 | 0.00 | 0.00 | 91 | 1010.8 |
| 20260904090230 | 10 | 131 | 4.8 | 6.4 | 0.00 | 0.00 | 0.00 | 92 | 1010.8 |
| 20260904085730 | 10 | 144 | 3.2 | 11.3 | 0.00 | 0.00 | 0.00 | 92 | 1010.7 |
| 20260904085225 | 10 | 132 | 3.2 | 6.4 | 0.00 | 0.00 | 0.00 | 91 | 1010.8 |
| 20260904084720 | 10 | 132 | 3.2 | 6.4 | 0.00 | 0.00 | 0.00 | 91 | 1010.7 |
| 20260904084216 | 10 | 126 | 3.2 | 11.3 | 0.00 | 0.00 | 0.00 | 91 | 1011.0 |
| 20260904083712 | 10 | 118 | 6.4 | 12.9 | 0.00 | 0.00 | 0.00 | 91 | 1010.8 |
| 20260904083209 | 10 | 123 | 8.0 | 9.7 | 0.00 | 0.00 | 0.00 | 91 | 1011.2 |
| 20260904082708 | 10 | 103 | 9.7 | 11.3 | 0.00 | 0.00 | 0.00 | 91 | 1011.2 |
| 20260904082204 | 10 | 139 | 4.8 | 12.9 | 0.00 | 0.00 | 0.00 | 91 | 1011.0 |
| 20260904081659 | 10 | 84 | 4.8 | 11.3 | 0.00 | 0.00 | 0.00 | 92 | 1011.0 |
| 20260904081154 | 10 | 121 | 6.4 | 12.9 | 0.00 | 0.00 | 0.00 | 92 | 1011.1 |
| 20260904080650 | 10 | 89 | 6.4 | 12.9 | 0.00 | 0.00 | 0.00 | 92 | 1010.8 |
| 20260904080146 | 10 | 112 | 6.4 | 6.4 | 0.00 | 0.00 | 0.00 | 92 | 1010.7 |
| 20260904075643 | 10 | 111 | 6.4 | 9.7 | 0.00 | 0.00 | 0.00 | 92 | 1010.7 |
| 20260904075143 | 10 | 85 | 9.7 | 11.3 | 0.00 | 0.00 | 0.00 | 92 | 1010.8 |
| 20260904074637 | 10 | 88 | 8.0 | 14.5 | 0.00 | 0.00 | 0.00 | 92 | 1010.8 |
| 20260904074137 | 10 | 126 | 6.4 | 9.7 | 0.00 | 0.00 | 0.00 | 91 | 1011.0 |
| 20260904073632 | 10 | 86 | 4.8 | 12.9 | 0.00 | 0.00 | 0.00 | 91 | 1011.0 |
| 20260904073128 | 10 | 123 | 6.4 | 9.7 | 0.00 | 0.00 | 0.00 | 90 | 1011.1 |
| 20260904072624 | 10 | 114 | 9.7 | 11.3 | 0.00 | 0.00 | 0.00 | 90 | 1010.8 |
| 20260904072118 | 11 | 111 | 3.2 | 9.7 | 0.00 | 0.00 | 0.00 | 90 | 1011.0 |
| 20260904071609 | 11 | 120 | 11.3 | 16.1 | 0.00 | 0.00 | 0.00 | 90 | 1010.7 |
| 20260904071109 | 11 | 109 | 4.8 | 11.3 | 0.00 | 0.00 | 0.00 | 90 | 1010.8 |
| 20260904070608 | 11 | 101 | 11.3 | 14.5 | 0.00 | 0.00 | 0.00 | 90 | 1010.8 |
| 20260904065558 | 11 | 116 | 8.0 | 11.3 | 0.00 | 0.23 | 0.23 | 91 | 1010.8 |
| 20260904065054 | 11 | 111 | 8.0 | 12.9 | 0.00 | 0.23 | 0.23 | 92 | 1010.6 |
| 20260904064550 | 11 | 120 | 6.4 | 12.9 | 0.00 | 0.23 | 0.23 | 92 | 1010.8 |
| 20260904064049 | 11 | 114 | 8.0 | 12.9 | 0.00 | 0.23 | 0.23 | 92 | 1010.8 |
| 20260904063546 | 11 | 100 | 4.8 | 11.3 | 0.00 | 0.23 | 0.23 | 93 | 1011.0 |
| 20260904063041 | 11 | 100 | 6.4 | 6.4 | 0.00 | 0.23 | 0.23 | 93 | 1011.0 |
| 20260904062538 | 11 | 115 | 3.2 | 6.4 | 0.00 | 0.23 | 0.23 | 93 | 1010.8 |
| 20260904062033 | 11 | 113 | 3.2 | 6.4 | 0.00 | 0.23 | 0.23 | 94 | 1011.0 |
| 20260904061528 | 11 | 126 | 3.2 | 4.8 | 0.13 | 0.23 | 0.23 | 94 | 1011.0 |
| 20260904061025 | 11 | 127 | 0.0 | 1.6 | 0.00 | 0.20 | 0.20 | 94 | 1011.1 |
| 20260904060521 | 11 | 137 | 3.2 | 6.4 | 0.00 | 0.20 | 0.20 | 94 | 1011.0 |
| 20260904060016 | 11 | 122 | 0.0 | 1.6 | 0.00 | 0.20 | 0.20 | 95 | 1010.7 |
| 20260904055512 | 11 | 122 | 0.0 | 1.6 | 0.18 | 0.20 | 0.20 | 94 | 1010.8 |
| 20260904055007 | 11 | 113 | 1.6 | 1.6 | 0.18 | 0.20 | 0.20 | 94 | 1011.1 |
| 20260904054502 | 11 | 107 | 1.6 | 3.2 | 0.00 | 0.18 | 0.18 | 94 | 1011.2 |
| 20260904053958 | 11 | 118 | 1.6 | 1.6 | 0.00 | 0.18 | 0.18 | 94 | 1011.2 |
| 20260904053458 | 11 | 120 | 1.6 | 1.6 | 0.00 | 0.18 | 0.18 | 93 | 1011.2 |
| 20260904052953 | 11 | 105 | 1.6 | 1.6 | 0.00 | 0.18 | 0.18 | 93 | 1011.2 |
| 20260904052449 | 11 | 122 | 1.6 | 1.6 | 0.00 | 0.18 | 0.18 | 92 | 1011.0 |
| 20260904051945 | 11 | 120 | 0.0 | 1.6 | 0.00 | 0.18 | 0.18 | 92 | 1011.1 |
| 20260904051442 | 11 | 118 | 1.6 | 1.6 | 0.00 | 0.18 | 0.18 | 92 | 1011.3 |
| 20260904050940 | 11 | 130 | 0.0 | 1.6 | 0.00 | 0.18 | 0.18 | 92 | 1011.3 |
| 20260904050437 | 11 | 113 | 1.6 | 3.2 | 0.00 | 0.18 | 0.18 | 92 | 1011.1 |
| 20260904045937 | 11 | 119 | 0.0 | 0.0 | 0.00 | 0.18 | 0.18 | 91 | 1011.3 |
| 20260904045432 | 11 | 112 | 0.0 | 1.6 | 0.00 | 0.18 | 0.18 | 91 | 1011.1 |
| 20260904044932 | 11 | 141 | 0.0 | 1.6 | 0.00 | 0.18 | 0.18 | 91 | 1011.3 |
| 20260904044429 | 11 | 110 | 1.6 | 1.6 | 0.00 | 0.18 | 0.18 | 90 | 1011.1 |
| 20260904043925 | 11 | 128 | 0.0 | 1.6 | 0.00 | 0.18 | 0.18 | 90 | 1011.2 |
| 20260904043421 | 11 | 130 | 1.6 | 3.2 | 0.00 | 0.18 | 0.18 | 91 | 1011.0 |
| 20260904042916 | 11 | 122 | 1.6 | 1.6 | 0.00 | 0.18 | 0.18 | 91 | 1011.2 |
| 20260904042412 | 11 | 126 | 1.6 | 3.2 | 0.00 | 0.18 | 0.18 | 92 | 1011.3 |
| 20260904041907 | 11 | 109 | 1.6 | 1.6 | 0.00 | 0.18 | 0.18 | 92 | 1010.8 |
| 20260904041403 | 11 | 127 | 0.0 | 1.6 | 0.00 | 0.18 | 0.18 | 92 | 1011.2 |
| 20260904040900 | 11 | 99 | 1.6 | 3.2 | 0.00 | 0.18 | 0.18 | 91 | 1011.1 |
| 20260904040354 | 11 | 137 | 0.0 | 0.0 | 0.00 | 0.18 | 0.18 | 91 | 1011.2 |
| 20260904035850 | 11 | 135 | 1.6 | 3.2 | 0.00 | 0.18 | 0.18 | 91 | 1011.1 |
| 20260904035346 | 11 | 118 | 0.0 | 0.0 | 0.00 | 0.18 | 0.18 | 90 | 1011.0 |
| 20260904034845 | 11 | 129 | 0.0 | 1.6 | 0.00 | 0.18 | 0.18 | 90 | 1010.7 |
| 20260904034341 | 11 | 137 | 1.6 | 3.2 | 0.00 | 0.18 | 0.18 | 90 | 1011.0 |
| 20260904033836 | 11 | 118 | 3.2 | 3.2 | 0.00 | 0.18 | 0.18 | 89 | 1010.7 |
| 20260904033332 | 12 | 120 | 3.2 | 4.8 | 0.00 | 0.18 | 0.18 | 88 | 1010.7 |
| 20260904032829 | 12 | 125 | 3.2 | 4.8 | 0.00 | 0.18 | 0.18 | 87 | 1010.6 |
| 20260904032328 | 12 | 104 | 4.8 | 6.4 | 0.00 | 0.18 | 0.18 | 87 | 1010.6 |
| 20260904031822 | 11 | 109 | 3.2 | 4.8 | 0.00 | 0.18 | 0.18 | 88 | 1010.5 |
| 20260904031318 | 11 | 140 | 6.4 | 6.4 | 0.00 | 0.18 | 0.18 | 89 | 1010.3 |
| 20260904030814 | 11 | 146 | 1.6 | 4.8 | 0.00 | 0.18 | 0.18 | 89 | 1010.5 |
| 20260904030309 | 11 | 75 | 1.6 | 4.8 | 0.00 | 0.18 | 0.18 | 90 | 1010.6 |
| 20260904025805 | 11 | 125 | 3.2 | 6.4 | 0.00 | 0.18 | 0.18 | 90 | 1010.3 |
| 20260904025301 | 11 | 116 | 6.4 | 9.7 | 0.00 | 0.18 | 0.18 | 90 | 1010.2 |
| 20260904024755 | 11 | 125 | 4.8 | 9.7 | 0.00 | 0.18 | 0.18 | 90 | 1010.3 |
| 20260904024250 | 12 | 116 | 4.8 | 6.4 | 0.00 | 0.18 | 0.18 | 89 | 1010.4 |
| 20260904023747 | 12 | 103 | 6.4 | 9.7 | 0.00 | 0.18 | 0.18 | 90 | 1010.3 |
| 20260904023243 | 12 | 122 | 4.8 | 9.7 | 0.00 | 0.18 | 0.18 | 90 | 1010.3 |
| 20260904022742 | 12 | 104 | 4.8 | 6.4 | 0.00 | 0.18 | 0.18 | 92 | 1010.5 |
| 20260904022239 | 12 | 111 | 6.4 | 9.7 | 0.00 | 0.18 | 0.18 | 93 | 1010.6 |
| 20260904021735 | 12 | 113 | 1.6 | 4.8 | 0.00 | 0.18 | 0.18 | 92 | 1010.3 |
| 20260904021235 | 12 | 118 | 0.0 | 1.6 | 0.00 | 0.18 | 0.18 | 92 | 1010.4 |
| 20260904020731 | 12 | 94 | 1.6 | 4.8 | 0.00 | 0.18 | 0.18 | 92 | 1010.5 |
| 20260904020230 | 12 | 113 | 1.6 | 3.2 | 0.00 | 0.18 | 0.18 | 92 | 1010.4 |
| 20260904015729 | 12 | 138 | 0.0 | 1.6 | 0.00 | 0.18 | 0.18 | 92 | 1010.4 |
| 20260904015225 | 12 | 120 | 1.6 | 1.6 | 0.00 | 0.18 | 0.18 | 91 | 1010.4 |
| 20260904014723 | 12 | 128 | 0.0 | 1.6 | 0.00 | 0.18 | 0.18 | 91 | 1010.4 |
| 20260904014218 | 12 | 78 | 0.0 | 4.8 | 0.00 | 0.18 | 0.18 | 90 | 1010.4 |
| 20260904013714 | 12 | 108 | 6.4 | 6.4 | 0.00 | 0.18 | 0.18 | 90 | 1010.3 |
| 20260904013210 | 12 | 116 | 1.6 | 3.2 | 0.00 | 0.18 | 0.18 | 89 | 1010.5 |
| 20260904012706 | 12 | 108 | 3.2 | 4.8 | 0.00 | 0.18 | 0.18 | 89 | 1010.5 |
| 20260904012205 | 12 | 105 | 3.2 | 4.8 | 0.00 | 0.18 | 0.18 | 90 | 1010.6 |
| 20260904011705 | 12 | 108 | 4.8 | 6.4 | 0.00 | 0.18 | 0.18 | 90 | 1010.6 |
| 20260904011200 | 12 | 136 | 4.8 | 6.4 | 0.00 | 0.18 | 0.18 | 91 | 1010.6 |
| 20260904010655 | 12 | 104 | 3.2 | 4.8 | 0.00 | 0.18 | 0.18 | 90 | 1011.0 |
| 20260904010152 | 12 | 102 | 3.2 | 3.2 | 0.00 | 0.18 | 0.18 | 90 | 1010.6 |
| 20260904005647 | 12 | 139 | 4.8 | 4.8 | 0.00 | 0.18 | 0.18 | 90 | 1010.5 |
| 20260904005142 | 12 | 97 | 4.8 | 4.8 | 0.00 | 0.18 | 0.18 | 90 | 1010.6 |
| 20260904004638 | 12 | 109 | 4.8 | 4.8 | 0.00 | 0.18 | 0.18 | 90 | 1010.7 |
| 20260904004137 | 12 | 98 | 1.6 | 4.8 | 0.00 | 0.18 | 0.18 | 88 | 1010.8 |
| 20260904003633 | 12 | 120 | 0.0 | 3.2 | 0.00 | 0.18 | 0.18 | 86 | 1010.6 |
| 20260904003130 | 12 | 121 | 0.0 | 1.6 | 0.00 | 0.18 | 0.18 | 85 | 1011.1 |
| 20260904002626 | 12 | 137 | 0.0 | 1.6 | 0.00 | 0.18 | 0.18 | 87 | 1011.0 |
| 20260904002126 | 12 | 137 | 0.0 | 1.6 | 0.00 | 0.18 | 0.18 | 87 | 1011.3 |